| time (UTC) | temp F | wind direction | speed MPH | gust MPH | rain 1hr in | rain 24hr in | rain mn in | humidity % | barometer mb |
| 20260506215114 | 64 | 188 | 2.0 | 10.0 | 0.00 | 0.00 | 0.00 | 52 | 1011.5 |
| 20260506212112 | 63 | 233 | 3.0 | 10.0 | 0.00 | 0.00 | 0.00 | 52 | 1011.7 |
| 20260506205113 | 63 | 129 | 3.0 | 10.0 | 0.00 | 0.00 | 0.00 | 53 | 1012.1 |
| 20260506202112 | 63 | 185 | 4.0 | 10.0 | 0.00 | 0.00 | 0.00 | 55 | 1012.2 |
| 20260506195113 | 63 | 214 | 0.0 | 10.0 | 0.00 | 0.00 | 0.00 | 54 | 1012.2 |
| 20260506192116 | 64 | 107 | 0.0 | 10.0 | 0.00 | 0.00 | 0.00 | 55 | 1012.3 |
| 20260506175113 | 61 | 218 | 3.0 | 10.0 | 0.00 | 0.00 | 0.00 | 53 | 1013.5 |
| 20260506172113 | 60 | 249 | 4.0 | 10.0 | 0.00 | 0.00 | 0.00 | 53 | 1013.5 |
| 20260506165443 | 58 | 326 | 3.0 | 10.0 | 0.00 | 0.00 | 0.00 | 55 | 1013.6 |
| 20260506165114 | 58 | 326 | 3.0 | 10.0 | 0.00 | 0.00 | 0.00 | 55 | 1013.6 |
| 20260506162112 | 56 | 216 | 3.0 | 10.0 | 0.00 | 0.00 | 0.00 | 60 | 1013.7 |
| 20260506155113 | 56 | 300 | 3.0 | 10.0 | 0.00 | 0.00 | 0.00 | 62 | 1013.5 |
| 20260506152113 | 53 | 215 | 6.0 | 10.0 | 0.00 | 0.00 | 0.00 | 71 | 1013.3 |
| 20260506142114 | 51 | 216 | 1.0 | 10.0 | 0.00 | 0.00 | 0.00 | 76 | 1012.4 |
| 20260506135113 | 49 | 213 | 2.0 | 10.0 | 0.00 | 0.00 | 0.00 | 79 | 1012.9 |
| 20260506132114 | 49 | 253 | 3.0 | 10.0 | 0.00 | 0.00 | 0.00 | 80 | 1012.5 |
| 20260506125113 | 48 | 154 | 5.0 | 10.0 | 0.00 | 0.00 | 0.00 | 82 | 1012.1 |
| 20260506122113 | 47 | 196 | 0.0 | 10.0 | 0.00 | 0.00 | 0.00 | 81 | 1011.6 |
| 20260506112203 | 47 | 194 | 0.0 | 10.0 | 0.00 | 0.00 | 0.00 | 81 | 1010.9 |
| 20260506112114 | 47 | 194 | 0.0 | 10.0 | 0.00 | 0.00 | 0.00 | 81 | 1010.9 |
| 20260506102114 | 48 | 225 | 1.0 | 10.0 | 0.00 | 0.00 | 0.00 | 79 | 1011.1 |
| 20260506095115 | 48 | 135 | 0.0 | 10.0 | 0.00 | 0.00 | 0.00 | 77 | 1010.8 |
| 20260506092114 | 48 | 198 | 0.0 | 10.0 | 0.00 | 0.00 | 0.00 | 77 | 1010.0 |
| 20260506085113 | 48 | 213 | 0.0 | 10.0 | 0.00 | 0.00 | 0.00 | 78 | 1009.8 |
| 20260506082113 | 48 | 194 | 0.0 | 10.0 | 0.00 | 0.00 | 0.00 | 78 | 1009.1 |
| 20260506072114 | 48 | 210 | 1.0 | 10.0 | 0.00 | 0.00 | 0.00 | 75 | 1008.4 |
| 20260506062113 | 49 | 235 | 2.0 | 10.0 | 0.00 | 0.00 | 0.00 | 75 | 1008.4 |
| 20260506045114 | 49 | 204 | 1.0 | 10.0 | 0.00 | 0.00 | 0.00 | 79 | 1008.1 |
| 20260506042114 | 49 | 200 | 3.0 | 10.0 | 0.00 | 0.00 | 0.00 | 81 | 1008.2 |
| 20260506035113 | 49 | 189 | 0.0 | 10.0 | 0.00 | 0.00 | 0.00 | 82 | 1008.0 |
| 20260506032114 | 49 | 106 | 4.0 | 10.0 | 0.00 | 0.00 | 0.00 | 84 | 1007.3 |
| 20260506025112 | 49 | 208 | 3.0 | 10.0 | 0.00 | 0.00 | 0.00 | 84 | 1006.7 |
| 20260506022113 | 49 | 248 | 4.0 | 10.0 | 0.00 | 0.00 | 0.00 | 82 | 1006.7 |
| 20260506015113 | 49 | 215 | 4.0 | 10.0 | 0.00 | 0.00 | 0.00 | 82 | 1006.2 |
| 20260506012113 | 50 | 193 | 0.0 | 10.0 | 0.00 | 0.00 | 0.00 | 82 | 1005.9 |
| 20260506005113 | 50 | 189 | 0.0 | 10.0 | 0.00 | 0.00 | 0.00 | 80 | 1005.0 |
| 20260506002114 | 51 | 149 | 2.0 | 10.0 | 0.00 | 0.00 | 0.00 | 76 | 1004.7 |
| 20260505232113 | 53 | 167 | 1.0 | 10.0 | 0.00 | 0.00 | 0.00 | 75 | 1004.7 |
| 20260505225113 | 53 | 211 | 4.0 | 10.0 | 0.00 | 0.00 | 0.00 | 76 | 1003.9 |